IRIDIUM 16

Last updated on Wed Nov 29 2017 00:19:02 GMT+0000 (Coordinated Universal Time)

1 24841U 97030F 17332.28791798 .00000153 00000-0 45148-4 0 9990 2 24841 86.4031 281.2586 0004406 98.6666 261.5031 14.36751765 71146

Satellite not in orbit

IRIDIUM 16